Location: Franzen
(48.6167°N, 15.3833°E)
Time: 18:46:27
(UTC+00:00)

Transit 2A - Pass Details

Date: 12 August 2021
Orbit: 594 x 964 km, 66.7° (Epoch: 26 September)

Event Time Altitude Azimuth Distance (km) Brightness Sun altitude
Rises 02:23:37 0° 198° (SSW) 2,845 - -12.5°
Reaches altitude 10° 02:25:50 10° 193° (SSW) 1,970 - -12.3°
Exits shadow 02:26:05 11° 192° (SSW) 1,877 7.6 -12.2°
Maximum altitude 02:30:06 50° 118° (ESE) 819 6.3 -11.7°
Drops below altitude 10° 02:34:45 10° 43° (NE) 2,143 9.8 -11.1°
Sets 02:37:14 0° 39° (NE) 3,124 11.0 -10.8°
